Stations météo

réclame
Mon MeteoGroup
Lyon/Bron, France (7480): Température de l'air & dewpoint: 19.04.2019 22:00:00 - 25.04.2019 22:00:00 (CEST)Lyon/Bron, France (7480): Température de l'air 5cm: 19.04.2019 22:00:00 - 25.04.2019 22:00:00 (CEST)Lyon/Bron, France (7480): Température de l'air -20cm: 19.04.2019 22:00:00 - 25.04.2019 22:00:00 (CEST)Lyon/Bron, France (7480): Vitesse du vent & gusts: 19.04.2019 22:00:00 - 25.04.2019 22:00:00 (CEST)Lyon/Bron, France (7480): Direction du vent: 19.04.2019 22:00:00 - 25.04.2019 22:00:00 (CEST)Lyon/Bron, France (7480): reduced air pressure: 19.04.2019 22:00:00 - 25.04.2019 22:00:00 (CEST)Lyon/Bron, France (7480): visibility: 19.04.2019 22:00:00 - 25.04.2019 22:00:00 (CEST)Lyon/Bron, France (7480): Ensoleillement: 19.04.2019 22:00:00 - 25.04.2019 22:00:00 (CEST)Lyon/Bron, France (7480): Quantités de précipitations: 19.04.2019 22:00:00 - 25.04.2019 22:00:00 (CEST)
Date & Time tt [°C] td [°C] tt 5cm [°C] tt -20cm [°C] ff [km/h] ff [knt] fx [km/h] fx [knt] dd ppp [hPa] vv [km] sd [min] rr [mm]
25.04.2019 22:00:00 8,2 7,6 7,2 14,5 4 2 9 5 SSE 1014,5 2,7 0 6,1
25.04.2019 21:00:00 8,1 6,6 7,4 14,7 9 5 28 15 WNW 1013,3 6 0 11,4
25.04.2019 20:00:00 9,1 8,5 8,7 14,8 16 9 34 19 NNE 1010,8 14 0 8,1
25.04.2019 19:00:00 9,7 8,6 9,0 14,8 26 14 44 24 N 1010,1 2,4 0 2,4
25.04.2019 18:00:00 14,3 7,6 12,9 14,7 23 12 59 32 W 1009,0 43 0 0,0
25.04.2019 17:00:00 17,1 7,2 16,9 14,7 29 15 57 31 SW 1007,5 59 0 0,0
25.04.2019 16:00:00 18,1 6,0 17,7 14,6 33 18 74 40 SSW 1006,9 57 0 0,0
25.04.2019 15:00:00 18,9 5,7 19,1 14,6 48 26 80 43 SSW 1006,4 55 0 0,0
25.04.2019 14:00:00 18,9 5,7 18,5 14,5 40 22 69 37 S 1006,5 47 0 0,0
25.04.2019 13:00:00 18,7 4,5 18,4 14,4 44 24 77 42 S 1006,6 20 0 0,0
25.04.2019 12:00:00 18,7 3,7 19,6 14,4 41 22 83 45 S 1005,9 20 33 0,0
25.04.2019 11:00:00 18,7 2,1 19,1 14,4 46 25 86 46 S 1005,1 18 56 0,0
25.04.2019 10:00:00 17,7 1,6 17,4 14,4 37 20 78 42 S 1005,8 57 54 0,0
25.04.2019 09:00:00 16,2 1,5 15,3 14,5 44 24 84 45 S 1005,3 60 60 0,0
25.04.2019 08:00:00 14,7 2,6 13,3 14,6 16 9 32 17 S 1006,3 60 39 0,0
25.04.2019 07:00:00 14,6 2,8 13,3 14,6 19 10 42 23 S 1006,8 59 0 0,0
25.04.2019 06:00:00 14,5 3,3 13,4 14,8 19 10 42 23 S 1007,3 60 0 0,0
25.04.2019 05:00:00 14,5 3,0 12,5 14,9 13 7 39 21 S 1007,5 60 0 0,0
25.04.2019 04:00:00 13,4 2,6 11,4 15,0 17 9 39 21 S 1008,0 60 0 0,0
25.04.2019 03:00:00 13,3 2,8 12,2 15,1 18 10 55 30 S 1008,0 60 0 0,0
25.04.2019 02:00:00 13,4 2,9 12,1 15,3 27 15 60 33 S 1007,6 60 0 0,0
25.04.2019 01:00:00 13,4 2,6 11,9 15,4 22 12 62 33 SSW 1007,7 60 0 0,0
25.04.2019 00:00:00 13,9 2,1 12,8 15,5 31 17 63 34 S 1007,3 60 0 0,0
24.04.2019 23:00:00 14,2 2,4 13,0 15,6 36 19 73 39 S 1007,2 60 0 0,0
24.04.2019 22:00:00 14,3 3,1 13,3 15,7 46 25 79 43 S 1007,2 60 0 0,0
24.04.2019 21:00:00 14,9 2,1 13,9 15,8 39 21 80 43 S 1005,9 60 12 0,0
24.04.2019 20:00:00 15,7 2,8 15,1 15,8 50 27 85 46 S 1004,5 29 60 0,0
24.04.2019 19:00:00 17,0 2,6 18,9 15,7 49 27 84 45 S 1004,3 32 60 0,0
24.04.2019 18:00:00 17,9 3,0 20,5 15,7 51 28 89 48 S 1003,9 40 60 0,0
24.04.2019 17:00:00 18,4 3,0 17,4 15,6 45 24 79 43 S 1004,1 20 36 0,0
24.04.2019 16:00:00 16,9 8,3 15,3 15,6 32 17 63 34 S 1004,4 20 21 0,0
24.04.2019 15:00:00 14,5 8,0 12,9 15,6 32 17 66 36 SSE 1004,8 48 0 0,0
24.04.2019 14:00:00 14,6 10,0 12,9 15,6 32 17 59 32 S 1004,9 49 0 0,0
24.04.2019 13:00:00 13,0 10,4 11,2 15,6 31 17 79 43 S 1004,7 35 5 1,2
24.04.2019 12:00:00 15,9 10,4 12,6 15,6 36 20 67 36 S 1003,2 56 0 0,0
24.04.2019 11:00:00 13,7 10,9 12,6 15,7 27 14 71 38 S 1003,3 18 0 0,6
24.04.2019 10:00:00 15,2 10,6 14,7 15,7 36 20 55 30 SSW 1002,6 16 1 0,0
24.04.2019 09:00:00 16,5 9,2 16,1 15,9 31 17 53 29 S 1001,2 20 8 0,0
24.04.2019 08:00:00 15,8 8,8 14,5 15,9 6 3 19 10 S 1000,5 54 0 0,0
24.04.2019 07:00:00 15,3 9,0 12,5 16,1 11 6 30 16 SSE 1000,2 48 0 0,0
24.04.2019 06:00:00 14,4 8,6 12,9 16,2 7 4 23 12 SE 1000,2 54 0 0,0
24.04.2019 05:00:00 15,3 8,5 13,9 16,3 14 8 42 23 SSE 1000,0 52 0 0,0
24.04.2019 04:00:00 15,8 8,8 14,7 16,4 17 9 44 24 S 1000,5 50 0 0,0
24.04.2019 03:00:00 15,7 10,0 14,0 16,5 23 12 32 18 S 1000,3 60 0 0,0
24.04.2019 02:00:00 14,9 10,3 14,0 16,6 15 8 23 13 SSE 1000,6 60 0 0,0
24.04.2019 01:00:00 15,1 10,3 14,2 16,7 13 7 28 15 SSE 1000,5 60 0 0,0
24.04.2019 00:00:00 15,5 10,9 14,7 16,8 16 9 32 17 S 1000,1 60 0 0,0
23.04.2019 23:00:00 15,9 10,9 15,3 16,9 16 9 34 19 S 999,6 60 0 0,0
23.04.2019 22:00:00 16,5 10,6 15,5 17,0 19 10 33 18 S 999,1 60 0 0,0
23.04.2019 21:00:00 16,9 10,5 15,6 17,0 8 4 26 14 SE 998,2 60 0 0,0
23.04.2019 20:00:00 17,8 9,9 16,9 16,9 16 8 27 14 S 997,3 60 0 0,0
23.04.2019 19:00:00 18,4 10,0 17,8 16,8 15 8 23 13 S 997,1 59 0 0,0
23.04.2019 18:00:00 18,8 10,6 17,1 16,6 19 10 37 20 S 997,2 50 0 0,0
23.04.2019 17:00:00 21,4 9,6 23,8 16,3 18 10 38 21 S 996,5 55 35 0,0
23.04.2019 16:00:00 21,6 10,7 23,7 16,0 10 5 20 11 S 996,6 20 34 0,0
23.04.2019 15:00:00 20,6 10,1 24,3 15,7 6 3 16 9 S 997,1 59 52 0,0
23.04.2019 14:00:00 19,8 10,5 22,4 15,6 8 4 18 10 S 997,4 60 43 0,0
23.04.2019 13:00:00 18,1 10,0 20,4 15,5 9 5 26 14 SSW 997,8 60 49 0,0
23.04.2019 12:00:00 16,0 11,8 14,3 15,5 6 3 11 6 W 998,1 40 0 0,2
23.04.2019 11:00:00 14,3 11,8 12,8 15,6 7 4 23 13 WSW 998,7 19 0 0,4
23.04.2019 10:00:00 13,5 11,4 12,4 15,7 13 7 36 19 SSW 998,8 16 0 1,4
23.04.2019 09:00:00 14,5 9,7 12,5 15,7 22 12 40 22 SSW 998,4 19 0 0,0
23.04.2019 08:00:00 16,0 6,7 13,7 15,9 16 9 29 16 S 997,7 20 0 0,0
23.04.2019 07:00:00 15,4 6,4 12,3 16,0 8 4 17 9 S 997,6 37 0 0,0
23.04.2019 06:00:00 15,9 6,0 13,4 16,1 9 5 24 13 SSW 997,4 34 0 0,0
23.04.2019 05:00:00 16,9 6,1 15,9 16,2 19 10 32 18 SSW 997,3 20 0 0,0
23.04.2019 04:00:00 17,0 6,2 15,9 16,3 17 9 26 14 S 997,9 20 0 0,0
23.04.2019 03:00:00 17,5 5,7 16,3 16,4 17 9 32 17 S 997,8 39 0 0,0
23.04.2019 02:00:00 17,6 6,1 15,7 16,5 19 11 35 19 S 997,9 41 0 0,0
23.04.2019 01:00:00 17,1 7,4 12,0 16,6 15 8 21 12 S 998,0 46 0 0,0
23.04.2019 00:00:00 15,7 8,4 11,7 16,7 4 2 8 4 S 997,9 32 0 0,0
22.04.2019 23:00:00 16,4 8,1 11,9 16,8 3 1 4 2 S 998,1 46 0 0,0
22.04.2019 22:00:00 17,9 7,9 13,0 16,8 3 1 7 4 W 998,4 46 0 0,0
22.04.2019 21:00:00 19,2 7,0 13,8 16,8 5 3 8 4 NNW 998,1 53 0 0,0
22.04.2019 20:00:00 21,4 6,9 19,0 16,7 5 3 17 9 N 998,4 46 0 0,0
22.04.2019 19:00:00 22,7 6,0 21,8 16,5 12 6 18 10 N 998,4 56 0 0,0
22.04.2019 18:00:00 23,9 3,8 24,7 16,2 9 5 17 9 N 999,0 54 0 0,0
22.04.2019 17:00:00 24,9 3,5 28,1 15,8 5 3 14 8 N 999,2 54 40 0,0
22.04.2019 16:00:00 24,8 4,0 30,8 15,5 9 5 19 10 N 1000,2 20 60 0,0
22.04.2019 15:00:00 24,3 5,1 30,1 15,2 7 4 22 12 N 1001,1 53 60 0,0
22.04.2019 14:00:00 22,9 8,6 27,1 15,0 5 3 13 7 NNW 1002,2 48 51 0,0
22.04.2019 13:00:00 20,9 10,1 25,4 14,8 5 3 10 6 W 1003,2 20 32 0,0
22.04.2019 12:00:00 19,5 9,1 22,8 14,7 7 4 11 6 NNW 1004,5 42 28 0,0
22.04.2019 11:00:00 17,5 8,4 20,7 14,8 5 3 15 8 NNW 1005,3 48 19 0,0
22.04.2019 10:00:00 16,4 7,9 15,6 14,8 8 5 13 7 NNW 1005,9 49 24 0,0
22.04.2019 09:00:00 13,7 8,9 11,9 14,9 3 1 5 3 SW 1006,7 30 0 0,0
22.04.2019 08:00:00 12,5 8,0 8,5 15,0 2 1 4 2 S 1007,4 17 0 0,0
22.04.2019 07:00:00 12,5 7,4 9,0 15,1 4 2 9 5 NNW 1007,7 46 0 0,0
22.04.2019 06:00:00 13,5 7,3 11,4 15,2 7 4 16 8 WNW 1007,9 59 0 0,0
22.04.2019 05:00:00 13,7 7,5 11,0 15,3 10 5 13 7 NW 1008,9 57 0 0,0
22.04.2019 04:00:00 14,1 7,8 11,0 15,4 8 5 11 6 N 1009,8 49 0 0,0
22.04.2019 03:00:00 14,1 6,9 11,2 15,5 4 2 6 4 NNE 1010,7 59 0 0,0
22.04.2019 02:00:00 14,2 6,3 11,7 15,6 0 0 6 4 N 1011,3 58 0 0,0
22.04.2019 01:00:00 14,2 7,3 11,3 15,7 4 2 8 4 SW 1011,9 60 0 0,0
22.04.2019 00:00:00 14,6 6,9 10,8 15,8 4 2 8 5 SSW 1012,0 58 0 0,0
21.04.2019 23:00:00 15,3 5,5 11,5 15,9 7 4 10 6 WSW 1012,5 58 0 0,0
21.04.2019 22:00:00 16,7 6,5 12,5 15,9 4 2 10 5 W 1012,9 52 0 0,0
21.04.2019 21:00:00 18,6 5,8 15,6 15,9 7 4 20 11 NW 1012,8 60 0 0,0
21.04.2019 20:00:00 19,2 7,6 17,2 15,8 13 7 16 9 N 1012,7 60 0 0,0
21.04.2019 19:00:00 20,3 7,3 19,6 15,6 11 6 20 11 NNW 1012,9 60 0 0,0
21.04.2019 18:00:00 21,1 7,0 22,2 15,5 13 7 21 11 NNW 1013,3 55 3 0,0
21.04.2019 17:00:00 21,7 4,3 25,6 15,4 13 7 21 12 N 1013,7 57 44 0,0
21.04.2019 16:00:00 21,4 6,5 23,6 15,3 13 7 19 10 N 1014,3 45 23 0,0
21.04.2019 15:00:00 18,3 7,7 19,0 15,2 4 2 16 9 NE 1015,9 43 1 0,0
21.04.2019 14:00:00 17,6 7,3 19,8 15,2 8 4 16 9 NNW 1016,6 46 0 0,0
21.04.2019 13:00:00 17,0 6,5 18,0 15,2 4 2 14 7 E 1017,7 47 0 0,0
21.04.2019 12:00:00 16,1 7,0 17,2 15,2 10 6 16 8 NW 1017,7 45 0 0,0
21.04.2019 11:00:00 15,3 7,8 14,9 15,3 10 5 16 8 NNW 1018,0 41 0 0,0
21.04.2019 10:00:00 14,5 7,3 15,1 15,4 8 4 14 7 E 1018,8 43 0 0,0
21.04.2019 09:00:00 13,7 6,5 11,9 15,5 5 3 9 5 E 1018,6 46 0 0,0
21.04.2019 08:00:00 12,5 6,3 9,7 15,7 4 2 8 4 WNW 1018,6 43 0 0,0
21.04.2019 07:00:00 11,5 6,8 7,8 15,8 6 3 8 4 S 1018,9 35 0 0,0
21.04.2019 06:00:00 11,4 6,1 7,7 16,0 0 0 8 4 N 1018,8 20 0 0,0
21.04.2019 05:00:00 12,4 5,8 8,8 16,1 7 4 8 4 E 1019,0 46 0 0,0
21.04.2019 04:00:00 13,5 5,6 10,1 16,3 4 2 10 5 E 1019,3 50 0 0,0
21.04.2019 03:00:00 13,4 6,3 9,9 16,5 6 3 9 5 S 1019,6 52 0 0,0
21.04.2019 02:00:00 14,9 6,5 12,5 16,6 4 2 11 6 SSE 1019,8 52 0 0,0
21.04.2019 01:00:00 15,2 7,0 10,5 16,7 8 4 13 7 SSW 1020,0 46 0 0,0
21.04.2019 00:00:00 16,1 7,3 11,2 16,9 5 3 9 5 SSE 1019,8 40 0 0,0
20.04.2019 23:00:00 17,3 6,5 11,8 16,9 4 2 9 5 WSW 1019,7 36 0 0,0
20.04.2019 22:00:00 18,4 5,6 13,2 17,0 9 5 13 7 NNW 1019,8 54 0 0,0
20.04.2019 21:00:00 20,4 6,3 16,7 16,9 8 4 14 8 N 1019,6 46 2 0,0
20.04.2019 20:00:00 22,0 6,2 20,7 16,9 13 7 21 12 N 1019,1 10 18 0,0
20.04.2019 19:00:00 23,0 7,5 23,5 16,6 16 8 27 14 N 1019,3 20 11 0,0
20.04.2019 18:00:00 23,9 5,7 27,1 16,3 10 6 26 14 N 1019,2 58 54 0,0
20.04.2019 17:00:00 24,7 3,9 29,4 15,9 7 4 25 14 NE 1019,6 19 60 0,0
20.04.2019 16:00:00 24,3 4,1 28,7 15,5 6 3 19 11 ENE 1020,5 60 60 0,0
20.04.2019 15:00:00 23,4 4,3 29,0 15,1 8 4 21 11 E 1021,4 46 60 0,0
20.04.2019 14:00:00 22,3 4,8 29,0 14,9 8 5 17 9 E 1022,1 43 60 0,0
20.04.2019 13:00:00 21,4 5,7 28,0 14,6 5 3 20 11 N 1022,9 20 60 0,0
20.04.2019 12:00:00 20,6 5,8 26,1 14,6 5 3 9 5 N 1023,7 19 60 0,0
20.04.2019 11:00:00 19,4 5,4 22,6 14,6 3 2 9 5 N 1024,3 39 60 0,0
20.04.2019 10:00:00 16,8 5,1 19,6 14,7 6 3 11 6 SW 1024,8 45 60 0,0
20.04.2019 09:00:00 14,7 6,0 12,2 14,8 8 4 11 6 S 1025,1 49 55 0,0
20.04.2019 08:00:00 11,3 5,4 5,6 15,0 3 1 5 3 NNE 1025,4 40 42 0,0
20.04.2019 07:00:00 9,5 4,7 5,4 15,2 3 1 6 4 NNE 1025,2 42 0 0,0
20.04.2019 06:00:00 10,6 4,7 6,2 15,3 2 1 8 5 SE 1024,9 19 0 0,0
20.04.2019 05:00:00 12,3 4,8 7,2 15,5 5 3 8 5 E 1025,1 47 0 0,0
20.04.2019 04:00:00 13,8 4,4 9,0 15,6 8 4 21 11 S 1024,9 57 0 0,0
20.04.2019 03:00:00 14,5 4,8 11,2 15,7 5 3 16 9 S 1024,9 52 0 0,0
20.04.2019 02:00:00 15,8 5,4 13,7 15,9 9 5 27 14 S 1025,2 52 0 0,0
20.04.2019 01:00:00 16,9 5,8 14,2 16,0 18 10 29 15 SSW 1024,9 47 0 0,0
20.04.2019 00:00:00 17,3 5,9 12,2 16,1 7 4 13 7 S 1024,7 43 0 0,0
19.04.2019 23:00:00 17,2 6,7 12,3 16,2 7 4 14 8 SSE 1024,8 43 0 0,0
19.04.2019 22:00:00 19,1 6,6 16,3 16,2 6 3 16 8 ESE 1024,4 46 0 0,0

tt = Température de l'air
td = dewpoint
tt 5cm = Température de l'air 5cm
tt -20cm = Température de l'air -20cm
ff = Vitesse du vent
fx = gusts
dd = Direction du vent
ppp = reduced air pressure
vv = visibility
sd = Ensoleillement
rr = Quantités de précipitations

stations d'obs. à proximité